Terminal Aerodrome Forecast
Issued by NWS Pittsburgh, PA

Current Version | Previous Version | Graphics & Text | Print | Product List | Glossary On
Versions: 1 2 3 4 5 6 7 8 9 10 11 12 13 14 15 16 17 18 19 20 21 22 23 24 25 26 27 28 29 30
000
FTUS41 KPBZ 202000 AAA
TAFPIT
TAF AMD
KPIT 202049Z 2021/2124 28011G21KT P6SM SCT028 OVC035
     FM210300 27010KT P6SM BKN035
     FM211600 26006KT P6SM SCT250=

USA.gov is the U.S. government's official web portal to all federal, state and local government web resources and services.